This demonstration page uses our WeatherBlox Daily Observations layout. Learn more.

Left ArrowRight Arrow

44.89941, -97.11507

Hourly Observations for April 16, 2019

Temp ( °F °C ) Dew Point ( °F °C ) Humidity (%) Winds ( mph kmh ) Pressure ( in mb ) Visibility ( mi km ) Precip ( " mm )
12:53 am 00:53 Clear 32 0 29 -1.7 88 88 Calm 29.87 1012 7 11 0.00 0.00
1:53 am 01:53 Clear 32 0 30 -1.1 92 92 N 3 6 29.89 1012 7 11 0.00 0.00
2:53 am 02:53 Clear with Mist and Fog 31 -0.6 28 -2.2 89 89 Calm 29.90 1012 5 8 0.00 0.00
3:53 am 03:53 Clear with Mist and Fog 30 -1.1 28 -2.2 92 92 Calm 29.90 1013 4 6 0.00 0.00
4:51 am 04:51 Clear with Mist and Fog 30 -1 28 -2 93 93 Calm 29.96 1014 3 4 0.00 0.00
4:53 am 04:53 Clear with Mist and Fog 30 -1.1 28 -2.2 92 92 Calm 29.92 1013 3 4 0.00 0.00
5:00 am 05:00 Clear with Mist and Fog 28 -2.2 27 -2.8 96 96 Calm 29.98 1015 1 2 0.00 0.00
5:11 am 05:11 Clear with Mist and Fog 28 -2.2 27 -2.8 96 96 Calm 29.98 1015 2 3 0.00 0.00
5:21 am 05:21 Clear with Mist and Fog 28 -2.2 25 -3.9 88 88 Calm 29.98 1015 6 10 0.00 0.00
5:32 am 05:32 Clear with Mist and Fog 28 -2.2 26 -3.3 92 92 Calm 29.99 1015 2 3 0.00 0.00
5:43 am 05:43 Clear with Mist and Fog 28 -2.2 26 -3.3 92 92 Calm 29.98 1015 3 5 0.00 0.00
5:53 am 05:53 Clear with Mist and Fog 28 -2.2 26 -3.3 92 92 Calm 29.93 1014 3 4 0.00 0.00
6:18 am 06:18 Clear with Mist and Fog 28 -2.2 25 -3.9 88 88 Calm 29.98 1015 4 6 0.00 0.00
6:35 am 06:35 Clear with Mist and Fog 29 -1.7 28 -2.2 96 96 Calm 29.98 1015 2 3 0.00 0.00
6:37 am 06:37 Clear with Freezing Fog 29 -1.7 28 -2.2 96 96 Calm 29.98 1015 1 1 0.00 0.00
6:44 am 06:44 Sunny with Freezing Fog 28 -2.2 26 -3.3 92 92 Calm 29.99 1015 5 8 0.00 0.00
6:53 am 06:53 Sunny with Freezing Fog 28 -2.2 26 -3.3 92 92 Calm 29.93 1014 0 0 0.00 0.00
6:57 am 06:57 Sunny with Mist and Fog 28 -2.2 26 -3.3 92 92 Calm 30.00 1016 1 2 0.00 0.00
7:12 am 07:12 Sunny with Mist and Fog 29 -1.7 29 -1.7 100 100 Calm 29.99 1016 1 1 0.00 0.00
7:24 am 07:24 Sunny with Mist and Fog 28 -2.2 27 -2.8 96 96 Calm 30.00 1016 2 2 0.00 0.00
7:31 am 07:31 Sunny with Mist and Fog 28 -2.2 26 -3.3 92 92 N 3 6 30.00 1016 1 1 0.00 0.00
7:53 am 07:53 Sunny with Mist and Fog 29 -1.7 27 -2.8 92 92 Calm 29.95 1014 1 1 0.00 0.00
7:56 am 07:56 Sunny with Mist and Fog 30 -1.1 28 -2.2 92 92 Calm 29.99 1015 2 2 0.00 0.00
8:21 am 08:21 Sunny with Mist and Fog 31 -0.6 30 -1.1 96 96 Calm 29.98 1015 3 4 0.00 0.00
8:28 am 08:28 Sunny with Mist and Fog 33 0.6 31 -0.6 92 92 Calm 29.97 1015 4 6 0.00 0.00
8:53 am 08:53 Sunny with Mist and Fog 34 1.1 32 0 92 92 Calm 29.95 1014 4 6 0.00 0.00
9:53 am 09:53 Sunny 45 7.2 35 1.7 68 68 Calm 29.94 1014 10 16 0.00 0.00
10:53 am 10:53 Sunny 50 10 35 1.7 57 57 Calm 29.96 1014 10 16 0.00 0.00
11:53 am 11:53 Sunny 52 11.1 36 2.2 55 55 Calm 29.97 1015 10 16 0.00 0.00
12:53 pm 12:53 Sunny 53 11.7 36 2.2 52 52 Calm 29.97 1015 10 16 0.00 0.00
1:53 pm 13:53 Sunny 52 11.1 35 1.7 53 53 SSW 7 11 29.96 1015 10 16 0.00 0.00
2:53 pm 14:53 Sunny 56 13.3 36 2.2 47 47 ESE 8 13 29.96 1015 10 16 0.00 0.00
3:53 pm 15:53 Sunny 56 13.3 32 0 40 40 SSE 8 13 29.95 1014 10 16 0.00 0.00
4:53 pm 16:53 Sunny 57 13.9 32 0 39 39 VRB 6 9 29.93 1014 10 16 0.00 0.00
5:53 pm 17:53 Sunny 56 13.3 29 -1.7 36 36 ESE 10 17 29.93 1014 10 16 0.00 0.00
6:53 pm 18:53 Mostly Sunny 53 11.7 32 0 45 45 ESE 6 9 29.95 1014 10 16 0.00 0.00
7:53 pm 19:53 Sunny 51 10.6 32 0 48 48 E 6 9 29.94 1014 10 16 0.00 0.00
8:53 pm 20:53 Clear 48 8.9 30 -1.1 50 50 E 7 11 29.94 1014 10 16 0.00 0.00
9:53 pm 21:53 Clear 48 8.9 31 -0.6 52 52 E 7 11 29.92 1013 10 16 0.00 0.00
10:53 pm 22:53 Clear 47 8.3 32 0 56 56 E 7 11 29.91 1013 10 16 0.00 0.00
11:53 pm 23:53 Mostly Cloudy 47 8.3 32 0 56 56 E 9 15 29.88 1012 10 16 0.00 0.00

Powered by AerisWeather